Weather History for Paynesville, MN

Change the Weather History Date:

Monday, March 3, 2014

  Actual Average (KLJF) Record (KLJF)
Temperature  
Mean Temperature -8 °F -  
Max Temperature 6 °F 33 °F 62 °F (1983)
Min Temperature -22 °F 14 °F -15 °F (1971)
Degree Days  
Heating Degree Days 73    
Moisture  
Dew Point -10 °F    
Average Humidity 70    
Maximum Humidity 79    
Minimum Humidity 58    
Precipitation  
Precipitation 0.00 in - - ()
Sea Level Pressure  
Sea Level Pressure 30.35 in    
Wind  
Wind Speed 2 mph (SE)    
Max Wind Speed 13 mph    
Max Gust Speed -    
Visibility 10 miles    
Events Snow    
Averages and records for this station are not official NWS values.
T = Trace of Precipitation, MM = Missing Value Source: NWS Daily Summary

Daily Weather History Graph

Daily Weather History Graph

Search for Another Location

Airport:

Trip Planner

Search our weather history database for the weather conditions in past years. The results will help you decide how hot, cold, wet, or windy it might be!

Date:

Astronomy

Mar. 03, 2014 Rise Set
Actual Time 6:53 AM CST 6:08 PM CST
Civil Twilight 6:23 AM CST 6:38 PM CST
Nautical Twilight 5:49 AM CST 7:12 PM CST
Astronomical Twilight 5:15 AM CST 7:47 PM CST
Moon 7:53 AM CST (3/3) 9:23 PM CST (3/3)
Length of Visible Light 12h 14m
Length of Day
11h 15m
Waxing Crescent, 8% of the Moon is Illuminated
Mar 3
Waxing Crescent
Mar 8
First Quarter
Mar 16
Full
Mar 23
Last Quarter
Mar 30
New

Hourly Weather History & Observations

Time (CST) Temp. Windchill Dew Point Humidity Pressure Visibility Wind Dir Wind Speed Gust Speed Precip Events Conditions
12:12 AM -19.5 °F - -25.2 °F 75% 30.50 in 10.0 mi Calm Calm - N/A   Clear
12:32 AM -18.4 °F - -23.8 °F 76% 30.49 in 10.0 mi Calm Calm - N/A   Clear
12:52 AM -22.2 °F - -28.1 °F 74% 30.49 in 10.0 mi Calm Calm - N/A   Clear
1:12 AM -21.5 °F - -27.2 °F 75% 30.50 in 10.0 mi Calm Calm - N/A   Clear
1:32 AM -18.8 °F - -24.0 °F 77% 30.50 in 10.0 mi Calm Calm - N/A   Scattered Clouds
1:52 AM -17.7 °F - -23.1 °F 76% 30.50 in 10.0 mi Calm Calm - N/A   Scattered Clouds
2:12 AM -18.4 °F - -23.8 °F 76% 30.50 in 10.0 mi Calm Calm - N/A   Scattered Clouds
2:32 AM -17.9 °F - -22.9 °F 78% 30.50 in 10.0 mi Calm Calm - N/A   Scattered Clouds
2:52 AM -19.5 °F - -25.1 °F 76% 30.50 in 10.0 mi Calm Calm - N/A   Scattered Clouds
3:12 AM -18.6 °F - -24.0 °F 76% 30.49 in 10.0 mi Calm Calm - N/A   Clear
3:32 AM -19.5 °F - -25.6 °F 73% 30.48 in 10.0 mi Calm Calm - N/A   Mostly Cloudy
3:52 AM -18.2 °F - -24.0 °F 75% 30.48 in 10.0 mi Calm Calm - N/A   Mostly Cloudy
4:12 AM -17.1 °F - -22.9 °F 75% 30.47 in 10.0 mi Calm Calm - N/A   Clear
4:32 AM -15.2 °F - -20.6 °F 77% 30.48 in 10.0 mi Calm Calm - N/A   Clear
4:52 AM -12.6 °F - -17.9 °F 78% 30.47 in 10.0 mi Calm Calm - N/A   Scattered Clouds
5:12 AM -11.2 °F - -16.4 °F 78% 30.47 in 10.0 mi Calm Calm - N/A   Mostly Cloudy
5:32 AM -11.2 °F - -16.1 °F 79% 30.47 in 10.0 mi Calm Calm - N/A   Overcast
5:53 AM -10.3 °F - -15.3 °F 78% 30.47 in 10.0 mi Calm Calm - N/A   Overcast
6:12 AM -9.2 °F - -14.3 °F 79% 30.46 in 10.0 mi Calm Calm - N/A   Overcast
6:32 AM -9.4 °F - -14.8 °F 77% 30.46 in 10.0 mi Calm Calm - N/A   Mostly Cloudy
6:52 AM -9.6 °F - -14.8 °F 78% 30.45 in 10.0 mi Calm Calm - N/A   Mostly Cloudy
7:13 AM -8.5 °F - -13.5 °F 79% 30.45 in 10.0 mi Calm Calm - N/A   Mostly Cloudy
7:32 AM -7.8 °F - -13.0 °F 78% 30.44 in 10.0 mi Calm Calm - N/A   Mostly Cloudy
7:52 AM -6.3 °F - -11.4 °F 79% 30.43 in 10.0 mi Calm Calm - N/A   Overcast
8:12 AM -5.6 °F - -11.7 °F 75% 30.43 in 10.0 mi Calm Calm - N/A   Overcast
8:32 AM -4.9 °F - -12.8 °F 69% 30.42 in 10.0 mi Calm Calm - N/A   Overcast
8:52 AM -4.0 °F - -13.2 °F 65% 30.42 in 10.0 mi Calm Calm - N/A   Overcast
9:12 AM -3.6 °F - -13.4 °F 63% 30.42 in 10.0 mi Calm Calm - N/A   Overcast
9:32 AM -3.1 °F - -13.0 °F 63% 30.41 in 10.0 mi Calm Calm - N/A   Overcast
9:52 AM -2.6 °F - -13.0 °F 61% 30.41 in 10.0 mi Calm Calm - N/A   Overcast
10:12 AM -2.0 °F - -12.1 °F 62% 30.41 in 10.0 mi Calm Calm - N/A   Overcast
10:32 AM -1.3 °F - -11.2 °F 63% 30.41 in 10.0 mi Calm Calm - N/A   Overcast
10:51 AM -0.4 °F - -11.2 °F 60% 30.40 in 10.0 mi Calm Calm - N/A   Mostly Cloudy
11:12 AM 0.5 °F -15.6 °F -10.7 °F 59% 30.38 in 10.0 mi SE 10.4 mph - N/A   Mostly Cloudy
11:32 AM 0.7 °F -13.3 °F -9.6 °F 62% 30.37 in 10.0 mi SE 8.1 mph - N/A   Overcast
11:52 AM 1.6 °F -12.2 °F -8.7 °F 62% 30.38 in 10.0 mi SE 8.1 mph - N/A   Overcast
12:12 PM 2.7 °F -10.9 °F -8.1 °F 61% 30.37 in 10.0 mi SE 8.1 mph - N/A   Overcast
12:32 PM 3.7 °F -3.6 °F -7.4 °F 60% 30.37 in 10.0 mi South 3.5 mph - N/A   Overcast
12:52 PM 4.1 °F -6.7 °F -6.9 °F 60% 30.36 in 10.0 mi SSE 5.8 mph - N/A   Overcast
1:12 PM 4.8 °F -9.3 °F -6.9 °F 59% 30.35 in 10.0 mi SSE 9.2 mph - N/A   Overcast
1:32 PM 5.0 °F -5.6 °F -6.2 °F 60% 30.34 in 10.0 mi SSE 5.8 mph - N/A   Overcast
1:52 PM 5.5 °F -6.3 °F -6.3 °F 58% 30.33 in 10.0 mi SSE 6.9 mph - N/A   Overcast
2:12 PM 6.1 °F -7.8 °F -5.6 °F 59% 30.33 in 10.0 mi SE 9.2 mph - N/A   Overcast
2:33 PM 6.4 °F -5.2 °F -4.5 °F 61% 30.32 in 10.0 mi SE 6.9 mph - N/A   Overcast
2:52 PM 6.3 °F -8.4 °F -4.7 °F 61% 30.31 in 10.0 mi SE 10.4 mph - N/A   Overcast
3:12 PM 6.8 °F -5.9 °F -4.4 °F 60% 30.30 in 10.0 mi SE 8.1 mph - N/A   Overcast
3:33 PM 6.6 °F -6.1 °F -4.2 °F 61% 30.29 in 10.0 mi SE 8.1 mph - N/A   Overcast
3:52 PM 6.6 °F -5.0 °F -4.2 °F 61% 30.29 in 10.0 mi SE 6.9 mph - N/A   Overcast
4:12 PM 6.6 °F - -3.8 °F 62% 30.28 in 10.0 mi Calm Calm - N/A   Overcast
4:32 PM 6.6 °F -7.1 °F -4.0 °F 62% 30.27 in 10.0 mi SE 9.2 mph - N/A   Overcast
4:53 PM 6.8 °F - -2.9 °F 64% 30.26 in 10.0 mi Calm Calm - N/A   Overcast
5:12 PM 6.4 °F -6.3 °F -2.4 °F 67% 30.25 in 10.0 mi ESE 8.1 mph - N/A   Overcast
5:32 PM 5.9 °F -10.5 °F -2.7 °F 68% 30.23 in 10.0 mi SE 12.7 mph - N/A   Overcast
5:52 PM 5.7 °F -9.9 °F -3.5 °F 66% 30.22 in 10.0 mi SE 11.5 mph - N/A   Overcast
6:12 PM 5.5 °F - -3.3 °F 67% 30.23 in 10.0 mi Calm Calm - N/A   Overcast
6:32 PM 5.5 °F -7.4 °F -3.5 °F 66% 30.23 in 10.0 mi SE 8.1 mph - N/A   Overcast
6:52 PM 5.7 °F - -4.0 °F 64% 30.23 in 10.0 mi Calm Calm - N/A   Overcast
7:12 PM 5.7 °F - -4.0 °F 64% 30.23 in 10.0 mi Calm Calm - N/A   Overcast
7:32 PM 5.7 °F - -4.0 °F 64% 30.22 in 10.0 mi Calm Calm - N/A   Overcast
7:52 PM 5.7 °F - -3.6 °F 65% 30.23 in 10.0 mi Calm Calm - N/A   Overcast
8:12 PM 5.7 °F - -2.2 °F 70% 30.22 in 4.0 mi Calm Calm - N/A Snow Light Snow
8:32 PM 5.5 °F - -1.3 °F 73% 30.22 in 10.0 mi Calm Calm - N/A Snow Light Snow
8:52 PM 5.7 °F - -1.3 °F 73% 30.20 in 10.0 mi Calm Calm - N/A   Overcast
9:12 PM 5.9 °F -7.0 °F -1.3 °F 72% 30.19 in 10.0 mi SE 8.1 mph - N/A   Overcast
9:32 PM 5.9 °F - -0.8 °F 74% 30.18 in 10.0 mi Calm Calm - N/A   Overcast
9:52 PM 5.7 °F - -0.6 °F 75% 30.18 in 10.0 mi Calm Calm - N/A   Overcast
10:12 PM 6.1 °F - -0.0 °F 76% 30.18 in 10.0 mi Calm Calm - N/A   Overcast
10:32 PM 6.6 °F -5.0 °F 0.5 °F 76% 30.18 in 10.0 mi SE 6.9 mph - N/A   Overcast
10:53 PM 6.6 °F - 0.7 °F 77% 30.20 in 10.0 mi Calm Calm - N/A   Overcast
11:13 PM 6.6 °F - 0.9 °F 77% 30.20 in 10.0 mi Calm Calm - N/A   Overcast
11:32 PM 6.6 °F - 0.9 °F 77% 30.18 in 10.0 mi Calm Calm - N/A   Overcast
11:52 PM 6.6 °F - 1.0 °F 78% 30.17 in 10.0 mi Calm Calm - N/A   Overcast